Budapest Ferihegy, Hungary

8:51 AM CEST on May 23, 2018 (GMT +0200)
Ferihegy

Weather History for LHBP - November, 2014

Change the Weather History Date:

Monday, November 24, 2014

  Actual Average Record
Temperature  
Mean Temperature 40 °F -  
Max Temperature 42 °F 37 °F 55 °F (2003)
Min Temperature 37 °F 25 °F 14 °F (2011)
Degree Days  
Heating Degree Days 26    
Moisture  
Dew Point 34 °F    
Average Humidity 79    
Maximum Humidity 93    
Minimum Humidity 66    
Precipitation  
Precipitation 0.00 in - - ()
Sea Level Pressure  
Sea Level Pressure 30.37 in    
Wind  
Wind Speed 4 mph ()    
Max Wind Speed 12 mph    
Max Gust Speed -    
Visibility 5.9 miles    
Events Rain    
Averages and records for this station are not official NWS values.
T = Trace of Precipitation, MM = Missing Value Source: Averaged Metar Reports

Daily Weather History Graph

Daily Weather History Graph

Search for Another Location

Airport or City:

Astronomy

Nov. 24, 2014 Rise Set
Actual Time 7:00 AM CET 3:58 PM CET
Civil Twilight 6:25 AM CET 4:33 PM CET
Nautical Twilight 5:47 AM CET 5:11 PM CET
Astronomical Twilight 5:11 AM CET 5:47 PM CET
Moon 8:35 AM CET (11/24) 6:02 PM CET (11/24)
Length of Visible Light 10h 07m
Length of Day
8h 58m
Waxing Crescent, 5% of the Moon is Illuminated
Nov 24
Waxing Crescent
Nov 29
First Quarter
Dec 6
Full
Dec 14
Last Quarter
Dec 22
New

Hourly Weather History & Observations

Time (CET) Temp. Windchill Dew Point Humidity Pressure Visibility Wind Dir Wind Speed Gust Speed Precip Events Conditions
12:00 AM 41.0 °F 39.0 °F 32.0 °F 70% 30.42 in 5.0 mi Variable 3.5 mph - N/A   Overcast
12:30 AM 41.0 °F - 32.0 °F 70% 30.42 in 5.0 mi Variable 2.3 mph - N/A   Overcast
1:00 AM 41.0 °F - 32.0 °F 70% 30.42 in 5.0 mi Variable 1.2 mph - N/A   Overcast
1:30 AM 41.0 °F - 32.0 °F 70% 30.39 in 5.0 mi Variable 2.3 mph - N/A   Mostly Cloudy
2:00 AM 39.2 °F - 32.0 °F 75% 30.39 in 6.2 mi Variable 2.3 mph - N/A   Mostly Cloudy
2:30 AM 39.2 °F - 32.0 °F 75% 30.39 in 6.2 mi Variable 2.3 mph - N/A   Mostly Cloudy
3:00 AM 37.4 °F 34.9 °F 30.2 °F 75% 30.39 in 5.0 mi Variable 3.5 mph - N/A   Mostly Cloudy
3:30 AM 37.4 °F - 32.0 °F 81% 30.39 in 5.0 mi Calm Calm - N/A   Mostly Cloudy
4:00 AM 37.4 °F - 32.0 °F 81% 30.39 in 5.0 mi Calm Calm - N/A   Mostly Cloudy
4:30 AM 37.4 °F - 33.8 °F 87% 30.36 in 6.2 mi Variable 1.2 mph - N/A   Mostly Cloudy
5:00 AM 37.4 °F - 33.8 °F 87% 30.36 in 6.2 mi Calm Calm - N/A   Mostly Cloudy
5:30 AM 39.2 °F 35.9 °F 33.8 °F 81% 30.36 in 6.2 mi East 4.6 mph - N/A   Mostly Cloudy
6:00 AM 39.2 °F 37.0 °F 33.8 °F 81% 30.36 in 6.2 mi Variable 3.5 mph - N/A   Mostly Cloudy
6:30 AM 39.2 °F 35.9 °F 35.6 °F 87% 30.36 in 6.2 mi East 4.6 mph - N/A   Mostly Cloudy
7:00 AM 39.2 °F 35.0 °F 35.6 °F 87% 30.36 in 3.7 mi East 5.8 mph - N/A   Overcast
7:30 AM 37.4 °F 32.1 °F 33.8 °F 87% 30.36 in 5.0 mi East 6.9 mph - N/A   Overcast
8:00 AM 39.2 °F 34.2 °F 33.8 °F 81% 30.36 in 6.2 mi East 6.9 mph - N/A   Overcast
8:30 AM 39.2 °F 33.6 °F 32.0 °F 75% 30.36 in 6.2 mi East 8.1 mph - N/A   Overcast
9:00 AM 39.2 °F 33.6 °F 32.0 °F 75% 30.39 in 6.2 mi East 8.1 mph - N/A   Overcast
9:30 AM 39.2 °F 34.2 °F 32.0 °F 75% 30.39 in 6.2 mi East 6.9 mph - N/A   Overcast
10:00 AM 39.2 °F 34.2 °F 32.0 °F 75% 30.39 in 6.2 mi East 6.9 mph - N/A   Overcast
10:30 AM 39.2 °F 34.2 °F 33.8 °F 81% 30.39 in 6.2 mi East 6.9 mph - N/A   Overcast
11:00 AM 41.0 °F 37.1 °F 33.8 °F 76% 30.36 in 6.2 mi ESE 5.8 mph - N/A   Mostly Cloudy
11:30 AM 41.0 °F 38.0 °F 33.8 °F 76% 30.36 in 6.2 mi ESE 4.6 mph - N/A   Mostly Cloudy
12:00 PM 41.0 °F 37.1 °F 33.8 °F 76% 30.36 in 6.2 mi East 5.8 mph - N/A   Mostly Cloudy
12:30 PM 42.8 °F 38.6 °F 33.8 °F 70% 30.36 in 6.2 mi East 6.9 mph - N/A   Mostly Cloudy
1:00 PM 42.8 °F 38.6 °F 32.0 °F 66% 30.33 in 6.2 mi East 6.9 mph - N/A   Scattered Clouds
1:30 PM 42.8 °F 38.0 °F 33.8 °F 70% 30.33 in 6.2 mi East 8.1 mph - N/A   Scattered Clouds
2:00 PM 42.8 °F 36.6 °F 33.8 °F 70% 30.33 in 6.2 mi ENE 11.5 mph - N/A   Mostly Cloudy
2:30 PM 41.0 °F 34.3 °F 33.8 °F 76% 30.33 in 6.2 mi ENE 11.5 mph - N/A   Mostly Cloudy
3:00 PM 42.8 °F 38.6 °F 33.8 °F 70% 30.33 in 6.2 mi ENE 6.9 mph - N/A   Mostly Cloudy
3:30 PM 41.0 °F 37.1 °F 33.8 °F 76% 30.36 in 6.2 mi ENE 5.8 mph - N/A   Mostly Cloudy
4:00 PM 41.0 °F 37.1 °F 33.8 °F 76% 30.36 in 6.2 mi ENE 5.8 mph - N/A   Mostly Cloudy
4:30 PM 41.0 °F 38.0 °F 33.8 °F 76% 30.36 in 6.2 mi ENE 4.6 mph - N/A   Mostly Cloudy
5:00 PM 41.0 °F 38.0 °F 33.8 °F 76% 30.36 in 6.2 mi ENE 4.6 mph - N/A   Mostly Cloudy
5:30 PM 41.0 °F 38.0 °F 33.8 °F 76% 30.36 in 6.2 mi ENE 4.6 mph - N/A   Mostly Cloudy
6:00 PM 39.2 °F 34.2 °F 33.8 °F 81% 30.36 in 6.2 mi East 6.9 mph - N/A   Mostly Cloudy
6:30 PM 39.2 °F 33.6 °F 35.6 °F 87% 30.36 in 6.2 mi East 8.1 mph - N/A   Mostly Cloudy
7:00 PM 39.2 °F 33.6 °F 33.8 °F 81% 30.36 in 6.2 mi East 8.1 mph - N/A   Mostly Cloudy
7:30 PM 37.4 °F 31.4 °F 35.6 °F 93% 30.36 in 6.2 mi East 8.1 mph - N/A   Mostly Cloudy
8:00 PM 37.4 °F 32.1 °F 35.6 °F 93% 30.36 in 6.2 mi East 6.9 mph - N/A   Mostly Cloudy
8:30 PM 37.4 °F 32.1 °F 35.6 °F 93% 30.36 in 6.2 mi East 6.9 mph - N/A   Mostly Cloudy
9:00 PM 39.2 °F 35.0 °F 35.6 °F 87% 30.36 in 6.2 mi East 5.8 mph - N/A   Mostly Cloudy
9:30 PM 39.2 °F 35.0 °F 35.6 °F 87% 30.36 in 6.2 mi East 5.8 mph - N/A   Mostly Cloudy
10:00 PM 39.2 °F 35.0 °F 35.6 °F 87% 30.36 in 6.2 mi ESE 5.8 mph - N/A   Mostly Cloudy
10:30 PM 39.2 °F 35.9 °F 35.6 °F 87% 30.39 in 6.2 mi ENE 4.6 mph - N/A   Mostly Cloudy
11:00 PM 39.2 °F 35.9 °F 35.6 °F 87% 30.39 in 5.0 mi NE 4.6 mph - N/A Rain Light Rain
11:30 PM 39.2 °F 35.0 °F 35.6 °F 87% 30.39 in 5.0 mi ENE 5.8 mph - N/A Rain Light Rain